Wind_Speed
10 8 7 8 6 8 8 9 8 10 12 6 6 6 6 7 6 7 8 9 7 7 9 7 6 5 5 4 3 4 6 5 4 5 5 6 8 11
11 11 10 12 11 11 11 11 11 11 10 8 7 6 8 9 9 8 9 7 5 9 7 5 5 5 5 4 1 4 6 7 6 6 6 7 9 11
13 14 14 14 14 12 12 11 11 13 14 12 11 11 13 13 12 12 12 9 5 6 6 7 5 4 3 3 2 2 5 6 8 8 9 9 9 10
10 12 12 12 12 13 12 13 13 13 14 14 14 13 13 13 14 15 14 11 9 7 6 7 8 4 3 2 2 4 6 8 10 11 12 12 11 11
11 12 10 10 12 14 14 14 14 14 14 15 15 14 14 14 16 14 15 14 13 11 10 6 6 3 3 4 4 4 5 6 8 9 10 11 12 12
13 11 10 10 11 11 14 16 15 15 14 14 14 13 13 14 14 14 14 14 13 12 10 10 7 6 6 5 5 5 6 7 8 8 9 11 11 10
15 14 14 16 14 14 15 16 16 17 17 16 16 15 15 15 15 14 16 17 15 16 16 13 11 10 9 8 7 6 7 8 8 8 8 8 6 6
19 19 19 19 17 16 17 17 16 15 15 17 17 17 16 17 16 13 13 14 14 13 12 15 16 13 11 11 10 9 7 7 7 7 6 7 8 8
21 19 19 20 18 19 17 17 16 16 16 16 16 17 18 18 17 17 16 16 16 17 15 16 15 16 15 15 13 11 9 6 5 5 5 6 7 8
21 22 22 21 21 20 18 17 16 17 17 17 16 15 15 16 16 17 16 16 15 13 13 15 15 16 17 17 16 14 13 9 3 2 2 3 4 8
18 20 20 18 17 16 15 14 15 17 18 15 13 12 11 11 11 10 10 10 11 11 12 14 17 18 20 20 19 18 17 14 8 4 0 2 5 6
18 17 13 12 14 16 12 11 10 11 10 10 10 9 8 8 7 6 6 8 8 8 8 9 14 15 14 19 21 23 13 8 2 5 6 4 3 3
10 10 10 9 8 6 4 2 2 2 4 3 2 5 7 8 8 8 8 9 8 7 7 7 8 9 7 9 7 9 12 11 10 8 4 4 2 4
7 5 2 1 2 1 1 1 4 5 5 5 6 5 7 8 9 9 8 8 7 6 5 6 5 6 8 10 11 10 9 10 12 11 6 1 4 4
4 3 2 1 2 3 1 0 2 2 0 2 3 4 5 6 5 6 7 6 5 5 5 6 8 8 8 9 10 11 12 13 13 13 10 5 7 9
4 4 3 1 1 1 2 2 3 3 3 2 3 4 5 4 5 5 7 6 6 6 4 5 7 9 10 11 12 13 15 15 9 11 12 8 6 8
5 5 3 2 1 1 1 2 3 5 5 5 5 5 4 2 4 6 7 7 7 5 4 5 7 9 11 12 11 10 8 5 5 6 10 9 9 12
7 7 5 4 4 5 5 5 5 5 5 5 4 3 3 5 6 8 8 7 6 4 5 7 8 9 9 8 8 6 5 6 7 8 9 9 11 10
11 11 9 8 7 6 5 5 4 5 6 7 7 8 7 7 7 7 6 6 5 5 7 9 10 10 9 9 8 7 6 6 7 9 9 10 11 11
7 8 8 8 8 7 5 5 5 7 9 9 9 10 11 12 11 9 7 7 7 8 10 9 9 10 10 11 12 10 9 8 9 11 11 13 15 16
3 2 4 5 6 8 6 5 5 6 6 7 9 11 15 16 14 13 11 9 9 10 9 8 8 9 9 9 9 8 6 6 7 8 8 8 8 6
5 4 4 5 5 7 10 8 6 3 1 2 5 8 12 15 14 11 11 12 10 9 8 11 8 7 8 9 10 9 6 5 6 6 5 5 6 6
12 9 7 7 5 5 3 3 6 7 3 3 4 6 7 12 13 11 9 9 10 8 8 10 10 10 10 12 13 12 10 7 7 8 5 7 9 10
Wind_Direction
258 272 277 270 254 253 279 298 306 313 310 288 267 262 274 293 294 300 312 321 324 348 352 351 347 347 353 352 235 222 221 246 271 285 284 270 243 243
269 272 280 263 266 275 276 284 295 288 292 302 276 274 276 292 298 288 306 310 293 345 354 359 10 11 7 15 236 222 236 254 254 266 281 267 265 259
275 269 272 271 276 280 278 282 293 285 278 284 276 279 286 290 289 283 288 287 289 335 346 347 345 2 11 359 338 284 267 264 267 275 286 281 273 268
276 275 273 270 274 277 278 285 285 281 280 280 275 274 277 277 285 280 282 273 290 295 310 326 330 330 2 7 336 300 284 278 275 277 279 276 273 268
276 279 277 278 275 271 276 279 287 283 282 283 279 275 268 275 284 289 282 268 279 277 285 300 333 329 341 347 345 330 309 294 287 284 282 277 271 268
273 278 276 278 294 284 278 280 283 278 280 284 284 274 270 274 274 277 280 281 283 267 293 270 281 282 302 317 328 329 323 314 307 299 291 281 270 272
265 270 272 275 289 297 293 288 277 278 277 271 273 271 270 274 278 278 279 275 272 268 291 257 265 264 277 292 307 313 315 314 309 308 312 315 303 279
268 266 264 266 280 291 288 288 283 281 280 277 277 275 272 277 278 275 276 270 264 283 289 271 265 257 265 272 279 285 293 303 304 303 303 302 301 296
272 269 265 272 281 291 284 272 277 280 285 284 282 279 276 271 268 268 273 270 268 278 279 277 273 260 262 263 266 270 275 270 280 292 297 304 302 294
270 269 266 267 277 282 275 270 275 280 282 281 279 281 281 275 271 267 266 266 267 270 271 271 275 267 262 258 255 254 248 233 221 301 329 343 333 321
266 266 269 271 272 268 266 273 281 287 287 283 282 282 278 275 268 259 257 270 273 281 284 280 274 270 256 250 246 247 245 218 197 151 117 281 318 329
265 268 262 267 272 270 265 274 279 286 283 272 258 247 245 251 260 263 280 298 296 298 290 280 282 287 275 269 271 269 264 217 348 313 338 263 227 272
257 258 269 274 283 292 297 269 260 271 299 277 274 296 308 317 316 319 317 311 301 277 273 281 293 296 284 289 309 273 246 250 285 284 280 292 289 281
231 244 244 214 202 205 201 306 314 293 279 294 308 336 353 3 20 25 19 8 5 5 6 351 341 323 318 310 308 309 305 291 270 269 257 276 351 350
173 146 99 25 81 76 77 331 110 118 20 336 6 28 63 71 48 12 3 5 16 26 27 28 17 9 359 330 313 314 304 300 285 260 229 251 280 284
141 152 155 180 301 5 55 73 96 90 92 88 89 97 90 38 35 28 22 24 25 18 358 6 7 359 356 342 319 313 308 292 302 246 252 255 275 284
162 150 152 163 174 159 113 98 93 93 90 93 101 108 105 44 354 342 337 340 345 359 348 336 339 337 335 337 340 329 318 298 258 259 243 258 286 289
119 116 122 122 118 115 107 103 104 99 98 100 91 57 32 29 26 17 11 14 10 341 313 314 322 335 338 318 321 328 312 275 263 240 242 271 298 303
110 107 102 103 100 98 102 112 112 102 89 79 69 64 46 24 6 0 356 1 7 355 346 338 331 337 345 352 353 347 325 283 255 248 263 280 290 294
103 104 103 97 93 87 100 110 107 100 88 72 62 52 40 31 20 13 3 356 351 342 339 331 332 337 340 337 328 318 297 281 269 271 279 286 291 292
75 161 147 120 91 70 80 102 98 106 87 69 56 48 32 25 23 23 18 7 356 357 356 352 351 350 348 350 358 358 347 314 296 291 293 306 317 317
80 130 151 165 130 86 85 78 71 62 75 2 13 11 16 15 10 14 19 15 6 353 357 7 352 349 354 354 348 350 1 10 354 351 329 316 325 325
72 86 106 120 138 123 106 76 37 41 6 325 344 353 354 3 357 349 347 353 356 344 340 338 337 340 343 341 329 329 331 312 323 332 323 309 303 290
Height
1576 1575 1575 1575 1576 1575 1574 1573 1572 1571 1570 1569 1568 1568 1568 1568 1567 1565 1564 1562 1560 1557 1555 1553 1551 1549 1547 1546 1546 1547 1548 1550 1551 1551 1550 1551 1551 1552
1573 1573 1574 1575 1574 1573 1572 1571 1570 1570 1569 1568 1568 1567 1567 1566 1565 1564 1563 1561 1559 1557 1554 1553 1551 1549 1547 1546 1546 1547 1547 1548 1548 1548 1548 1548 1549 1550
1572 1572 1571 1572 1571 1570 1569 1569 1568 1568 1568 1567 1566 1566 1564 1563 1563 1562 1561 1560 1558 1557 1555 1553 1551 1549 1547 1547 1547 1546 1547 1547 1547 1547 1546 1546 1546 1546
1570 1570 1570 1569 1568 1568 1567 1566 1566 1566 1566 1564 1564 1563 1562 1561 1560 1560 1558 1558 1557 1555 1554 1553 1552 1549 1548 1547 1546 1546 1546 1546 1545 1545 1544 1544 1543 1543
1568 1567 1566 1566 1566 1566 1565 1564 1564 1564 1563 1561 1561 1560 1559 1558 1557 1557 1556 1555 1554 1554 1553 1553 1552 1551 1549 1548 1546 1545 1544 1544 1543 1542 1542 1541 1540 1540
1564 1564 1564 1563 1563 1562 1562 1562 1561 1560 1560 1559 1558 1558 1556 1555 1554 1553 1553 1552 1552 1551 1552 1552 1551 1550 1549 1547 1545 1544 1543 1543 1542 1540 1539 1538 1538 1538
1561 1561 1561 1561 1560 1560 1559 1559 1558 1557 1556 1554 1554 1553 1552 1551 1550 1549 1548 1548 1547 1547 1548 1548 1548 1548 1547 1546 1545 1543 1542 1541 1540 1538 1537 1537 1537 1536
1557 1558 1557 1557 1557 1557 1556 1555 1555 1554 1554 1552 1551 1549 1549 1547 1546 1546 1545 1543 1543 1544 1543 1544 1544 1544 1543 1542 1542 1541 1540 1539 1538 1538 1536 1535 1536 1536
1553 1553 1553 1553 1553 1552 1552 1552 1551 1551 1550 1548 1547 1546 1544 1544 1543 1543 1542 1541 1540 1539 1540 1540 1540 1540 1541 1540 1539 1538 1537 1536 1536 1535 1534 1533 1534 1534
1549 1548 1549 1549 1548 1547 1547 1547 1547 1546 1545 1544 1543 1542 1541 1539 1539 1538 1538 1538 1537 1536 1536 1536 1536 1536 1537 1536 1536 1536 1535 1534 1532 1533 1532 1530 1530 1530
1544 1543 1543 1543 1542 1543 1543 1543 1542 1542 1541 1541 1540 1539 1538 1537 1536 1535 1534 1534 1534 1534 1533 1532 1533 1533 1530 1529 1529 1530 1530 1529 1529 1531 1531 1530 1531 1530
1539 1539 1539 1539 1539 1538 1537 1538 1538 1538 1537 1536 1536 1535 1535 1534 1533 1532 1531 1531 1531 1532 1532 1532 1531 1531 1529 1526 1527 1527 1527 1529 1530 1531 1530 1529 1530 1529
1537 1537 1537 1537 1537 1537 1537 1536 1536 1536 1535 1535 1535 1535 1534 1533 1532 1531 1531 1531 1532 1531 1530 1530 1529 1528 1528 1527 1526 1525 1526 1527 1528 1528 1529 1530 1530 1530
1535 1535 1535 1536 1535 1535 1536 1536 1536 1537 1536 1536 1535 1535 1534 1533 1533 1533 1533 1533 1532 1531 1530 1530 1530 1530 1529 1529 1528 1527 1528 1527 1527 1528 1528 1529 1528 1528
1534 1533 1534 1535 1536 1536 1536 1536 1535 1536 1536 1536 1536 1536 1536 1536 1535 1535 1534 1533 1533 1532 1531 1532 1532 1530 1528 1527 1526 1525 1525 1526 1526 1525 1527 1527 1527 1527
1534 1534 1535 1536 1537 1537 1536 1536 1535 1535 1535 1535 1535 1536 1536 1537 1537 1535 1535 1534 1533 1533 1532 1531 1530 1530 1530 1528 1526 1525 1524 1524 1522 1523 1526 1527 1526 1526
1534 1534 1536 1537 1537 1537 1538 1537 1537 1535 1535 1536 1537 1536 1536 1536 1536 1535 1534 1534 1534 1533 1532 1531 1530 1529 1529 1526 1525 1522 1522 1522 1522 1522 1523 1525 1525 1524
1536 1536 1537 1538 1539 1538 1538 1539 1539 1539 1539 1538 1537 1538 1537 1535 1535 1534 1534 1533 1533 1533 1533 1531 1530 1529 1526 1525 1524 1522 1521 1521 1521 1520 1521 1522 1522 1521
1536 1537 1538 1540 1542 1542 1541 1541 1540 1540 1540 1540 1540 1539 1539 1537 1536 1535 1534 1533 1533 1533 1532 1530 1530 1528 1525 1524 1524 1522 1522 1520 1520 1519 1519 1521 1519 1518
1540 1540 1542 1543 1543 1543 1543 1543 1542 1542 1542 1543 1543 1541 1540 1538 1537 1534 1533 1533 1532 1532 1531 1530 1528 1526 1524 1523 1520 1519 1519 1520 1519 1519 1516 1516 1515 1513
1542 1543 1542 1543 1545 1545 1544 1544 1544 1544 1544 1545 1543 1542 1542 1540 1537 1534 1533 1531 1532 1531 1531 1528 1526 1524 1523 1522 1520 1518 1517 1516 1517 1515 1514 1514 1512 1510
1541 1540 1543 1543 1546 1548 1546 1545 1545 1545 1545 1546 1544 1543 1541 1540 1538 1536 1534 1532 1532 1531 1530 1528 1526 1525 1524 1521 1520 1519 1517 1516 1516 1514 1513 1513 1512 1511
1541 1540 1542 1543 1545 1545 1547 1547 1547 1546 1545 1544 1541 1541 1540 1539 1538 1537 1535 1535 1533 1531 1529 1528 1527 1525 1523 1521 1519 1518 1517 1516 1515 1514 1513 1511 1510 1509